Location: B?ogocice
(50.2413°N, 20.2361°E)
Time: 12:03:59
(UTC+00:00)

ALOS - Pass Details

Date: 19 September 2024
Orbit: 669 x 673 km, 98.0° (Epoch: 09 October)

Event Time Altitude Azimuth Distance (km) Brightness Sun altitude
Rises 00:23:31 0° 25° (NNE) 3,031 6.7 -33.2°
Reaches altitude 10° 00:26:15 10° 41° (NE) 2,110 5.6 -33.0°
Enters shadow 00:29:27 21° 85° (E) 1,495 4.3 -32.7°
